Regional Weather Roundup
Issued by NWS

Home | Current Version | Previous Version | Text Only | Print | Product List | Glossary Off
Versions: 1 2 3 4 5 6 7 8 9 10 11 12 13 14 15 16 17 18 19 20 21 22 23 24 25 26 27 28 29 30 31 32 33 34 35 36 37 38 39 40 41 42 43 44 45 46 47 48 49 50

000
ASUS44 KMEG 282200
RWRTN
TENNESSEE HOURLY STATE WEATHER ROUNDUP
NATIONAL WEATHER SERVICE MEMPHIS TN
500 PM CDT THU AUG 28 2014

TNZ002-004-019-021-049-052-054-088>092-282300-
WEST TENNESSEE

CITY           SKY/WX    TMP DP  RH WIND       PRES   REMARKS
MEMPHIS INTL   MOSUNNY   93  63  36 W7        29.94F HX  94
NWS MEMPHIS      N/A     91 N/A N/A MISG        N/A
JACKSON        SUNNY     91  68  46 S3        29.95F HX  95
DYERSBURG      MOSUNNY   88  66  48 W3        29.96S HX  90
UNION CITY     MOSUNNY   81  73  78 N7        29.95F
PARIS          MOSUNNY   88  73  62 N7        29.97S HX  96
LEXINGTON      MOSUNNY   91  66  43 VRB5      29.95S HX  94
SAVANNAH       SUNNY     91  68  46 S7        29.96S HX  95
$$

TNZ008-025-027-028-033-062-065-066-282300-
NORTH MIDDLE TENNESSEE

CITY           SKY/WX    TMP DP  RH WIND       PRES   REMARKS
NASHVILLE      MOSUNNY   92  69  47 E8        29.96F HX  97
CLARKSVILLE    TSTM      77  69  76 W10       29.99R
COOKEVILLE     PTSUNNY   84  73  70 E6        30.01R HX  91
CROSSVILLE     CLOUDY    76  70  82 NW6       30.06S THUNDER
$$

TNZ061-075-076-078-094-096-097-282300-
SOUTH MIDDLE TENNESSEE

CITY           SKY/WX    TMP DP  RH WIND       PRES   REMARKS
FAYETTEVILLE   MOSUNNY   88  66  48 S6        29.99S HX  90
TULLAHOMA      SUNNY     90  66  45 CALM      30.00F HX  92
WINCHESTER     SUNNY     90  68  48 SE5       29.99F HX  93
COLUMBIA       SUNNY     91  70  49 CALM      29.95F HX  97
SHELBYVILLE    SUNNY     91  72  52 S5        29.98F HX  98
$$

TNZ017-018-042-046-047-282300-
NORTHEAST TENNESSEE

CITY           SKY/WX    TMP DP  RH WIND       PRES   REMARKS
TRI CITIES     MOSUNNY   87  66  49 N7        30.04F
ELIZABETHTON   CLEAR     84  66  54 N3        30.04S
$$

TNZ012-013-036-069-073-074-282300-
CENTRAL EAST TENNESSEE

CITY           SKY/WX    TMP DP  RH WIND       PRES   REMARKS
KNOXVILLE      NOT AVBL
OAK RIDGE      SUNNY     91  68  46 NE3       30.01F HX  95
GATLINBURG     PTCLDY    88  66  48 E5        29.99F HX  90
$$

TNZ083-085-099-282300-
SOUTHEAST TENNESSEE

CITY           SKY/WX    TMP DP  RH WIND       PRES   REMARKS
CHATTANOOGA    MOSUNNY   90  63  40 NE6       29.98F HX  91
$$

SKY/WX REPORTED AS FAIR MEANS FEW OR NO CLOUDS BELOW
12 THOUSAND FEET.



USA.gov is the U.S. government's official web portal to all federal, state and local government web resources and services.